Theta_e
330 335 333 337 347 348 346 347 345 348 349 349 349 349 349 350 358 368 355 347 345 350 355 347 334 330 333 342 347 347 344 341 337 337 339 335 334 336 342 346 346 344 340 340 340 339 338 337 337
332 332 334 340 341 341 348 344 343 347 348 349 348 348 348 355 357 357 355 349 348 352 354 352 335 329 329 335 342 346 346 343 341 342 340 339 336 334 337 343 343 343 339 339 339 337 335 332 331
329 332 334 337 339 340 345 342 343 347 347 348 348 348 350 358 357 357 355 349 351 351 353 353 336 329 329 332 336 342 345 346 347 345 344 343 342 340 337 338 343 342 342 343 342 339 338 337 335
331 332 333 332 335 340 340 341 341 346 347 348 348 352 356 357 357 356 351 348 349 348 352 345 337 331 329 329 331 335 340 345 346 344 343 341 339 337 335 337 342 342 344 344 340 338 339 339 339
331 333 335 336 336 336 336 337 342 345 347 346 350 351 360 358 356 353 348 347 346 345 353 350 338 333 331 328 329 330 332 336 337 336 335 334 334 335 335 337 340 341 341 340 339 340 340 336 333
332 334 335 336 336 336 335 335 339 345 347 346 348 356 356 357 356 351 346 345 343 345 348 352 341 335 333 331 329 329 330 332 334 334 333 331 333 335 336 337 338 339 341 343 340 336 335 335 334
331 332 334 334 336 336 336 335 336 341 346 347 344 351 354 356 353 346 344 343 342 343 347 349 350 348 336 334 332 330 330 331 334 335 334 333 332 333 334 335 340 344 342 340 337 338 338 336 335
329 331 332 333 335 335 336 334 338 338 350 344 343 350 357 356 350 344 342 341 341 342 344 346 348 350 350 347 336 334 333 332 333 335 336 336 337 338 339 340 341 340 339 337 338 338 336 335 335
328 329 330 331 334 335 336 335 338 340 344 344 347 353 355 353 349 344 342 341 341 341 342 344 346 347 347 349 347 338 337 336 336 337 336 338 345 347 346 345 342 345 340 337 336 336 334 333 337
326 329 329 330 334 336 336 334 334 338 343 343 346 350 352 354 348 345 346 342 341 341 342 342 345 344 346 348 351 348 347 346 346 347 350 347 347 347 346 346 345 342 337 332 331 331 330 332 343
325 326 328 330 333 334 333 334 334 335 340 339 338 339 336 342 342 336 334 335 342 342 344 345 348 347 345 345 349 347 348 349 349 349 350 349 349 348 346 343 346 345 340 340 337 341 338 340 343
324 325 326 328 332 333 332 332 334 334 337 336 336 334 333 342 339 336 332 331 332 346 347 348 349 349 338 335 339 347 348 350 349 349 350 351 350 348 347 343 344 343 342 345 347 347 346 348 346
324 325 325 327 330 331 331 332 332 333 334 335 333 334 333 334 337 332 333 333 338 344 347 350 350 339 350 350 346 348 348 349 350 350 351 350 350 349 348 345 347 348 348 350 349 350 349 344 342
325 324 324 327 327 329 329 330 330 330 331 331 331 335 337 338 341 331 329 330 334 333 352 350 350 351 352 349 349 349 347 350 350 351 351 350 350 349 349 347 347 349 350 351 350 350 349 344 339
325 324 324 324 326 327 328 328 328 331 331 330 334 342 344 347 345 348 351 353 352 349 353 354 350 350 350 349 349 348 348 351 350 350 353 352 351 350 352 347 347 348 348 350 349 348 346 343 336
323 324 324 324 324 326 327 326 331 330 330 329 342 344 343 340 339 339 338 339 341 352 355 352 350 349 350 348 334 349 350 354 353 352 351 352 351 350 349 345 345 346 347 347 346 345 343 339 333
325 325 324 325 326 325 326 327 332 330 329 332 341 343 341 336 334 334 334 333 332 333 341 340 344 341 349 348 350 352 354 354 353 352 351 351 351 349 349 346 346 347 345 345 345 343 342 339 334
327 324 325 326 326 325 326 335 336 335 332 342 344 341 336 333 331 328 327 326 328 331 333 330 334 338 341 337 341 349 349 349 349 348 348 349 349 348 348 345 346 346 343 341 341 340 339 337 335
326 325 325 325 326 326 334 338 345 342 342 343 341 337 333 330 328 326 325 323 323 322 323 325 323 326 329 333 340 343 344 347 346 346 346 345 345 346 345 344 343 343 341 338 337 337 335 333 328
323 324 324 324 325 326 335 343 340 340 341 340 337 335 333 329 326 324 322 319 318 319 319 320 320 319 322 323 328 334 340 342 342 339 341 340 340 341 341 341 340 340 339 337 336 334 332 330 329
323 323 324 324 325 325 334 342 339 337 336 333 331 329 328 326 325 323 319 318 317 317 317 318 318 317 317 319 321 323 327 330 331 331 333 332 335 336 337 337 337 338 337 336 335 334 332 331 331
325 324 323 323 323 326 332 335 341 337 335 332 329 327 324 322 322 320 319 317 315 315 315 316 318 316 317 318 318 319 320 321 321 322 324 324 327 332 333 334 334 334 335 335 335 333 332 332 332
326 324 324 324 325 325 329 330 341 335 335 333 329 326 324 321 320 318 317 316 317 316 315 315 315 316 316 316 316 317 317 317 317 318 319 318 320 322 324 328 329 331 332 333 332 332 331 331 330
323 323 324 325 325 326 326 325 339 338 337 333 329 326 322 321 319 318 317 317 316 315 314 314 314 314 314 313 314 314 314 314 315 315 315 315 316 316 317 319 319 322 322 324 325 329 329 329 329
323 324 326 327 327 327 327 328 338 334 333 331 328 324 322 320 319 318 317 316 315 314 314 313 313 313 313 312 312 312 312 312 312 311 312 312 312 312 313 313 314 314 316 318 319 322 324 326 327
325 325 326 327 326 325 328 326 336 330 327 324 322 320 317 317 317 316 315 314 314 313 313 313 312 312 311 311 310 310 310 309 309 309 308 308 309 309 309 310 311 312 313 314 315 318 320 323 325
323 325 324 325 322 321 321 332 330 327 326 324 323 320 317 317 316 317 314 313 313 313 312 311 311 310 310 309 308 307 306 306 305 304 304 304 303 304 304 305 306 308 309 311 312 313 318 320 320
320 321 323 323 326 327 322 325 332 331 328 325 323 321 317 319 318 316 314 313 313 312 311 310 309 308 308 307 306 305 304 303 303 303 303 303 302 303 303 304 306 308 308 309 310 312 314 317 319
325 324 323 325 323 323 322 325 327 329 329 326 325 323 320 319 317 315 314 313 312 310 310 308 307 306 306 305 304 303 303 303 303 303 303 303 304 304 306 306 306 309 309 311 309 310 311 315 317
320 321 323 326 326 325 328 327 327 327 328 326 323 320 319 318 316 314 313 312 311 309 308 307 306 305 304 303 303 303 303 303 303 303 304 304 305 305 306 306 307 308 309 310 311 312 313 315 314
Wind_Speed
8 5 8 10 8 9 4 14 7 9 11 8 4 5 13 15 14 3 12 12 15 18 17 16 15 13 12 12 13 13 13 13 14 13 12 13 14 13 13 12 8 6 5 5 5 5 4 3 3
11 9 11 7 11 15 6 21 14 11 9 5 3 4 2 14 12 11 15 12 17 18 17 15 15 14 13 12 12 13 13 12 13 12 12 12 12 12 12 10 7 5 5 5 5 4 3 3 3
10 11 10 11 14 13 2 14 13 10 5 4 4 5 6 10 9 8 16 17 18 17 16 16 16 14 13 13 12 12 11 12 12 12 10 10 10 10 11 9 7 5 4 3 2 2 2 1 1
8 10 7 10 19 13 11 13 7 8 7 2 2 10 12 9 7 11 17 18 17 16 15 17 16 14 13 13 13 13 12 12 12 11 10 10 9 9 10 9 7 5 3 3 2 2 2 2 3
14 8 12 15 11 6 8 8 6 6 10 7 5 7 14 10 13 16 18 18 18 17 16 17 16 15 13 13 12 11 11 11 10 10 9 8 8 9 10 9 8 6 5 4 4 4 4 4 4
10 11 13 15 10 5 4 8 8 4 13 9 6 7 10 10 13 16 18 18 18 19 17 18 18 15 13 12 12 11 11 11 9 8 8 8 8 8 8 8 7 6 6 5 5 5 5 5 6
14 14 15 21 4 2 2 10 10 11 4 11 4 5 10 12 13 16 17 17 16 17 19 17 16 16 14 12 11 10 9 10 9 8 7 7 7 7 8 8 7 7 6 6 6 6 6 7 7
13 13 19 17 14 8 8 12 4 10 11 6 3 2 11 17 14 14 14 15 14 14 15 15 14 14 13 11 11 10 9 9 8 7 6 6 6 6 7 8 8 9 9 9 9 8 9 9 9
11 14 14 18 15 11 7 11 9 3 8 11 11 15 12 15 12 14 11 11 13 12 11 15 12 11 10 11 10 9 9 8 7 5 6 4 4 7 8 10 10 11 12 12 11 11 11 11 11
15 13 19 14 11 6 5 5 8 10 11 21 19 14 9 7 10 11 22 2 7 9 10 10 11 9 5 7 6 7 7 6 6 5 7 5 5 4 6 2 10 13 15 14 13 13 13 14 15
16 17 18 4 7 8 7 5 3 12 4 16 7 5 3 9 27 29 43 52 37 11 10 8 9 8 11 7 4 7 7 6 5 6 6 5 3 6 5 7 10 8 10 9 14 14 13 13 17
18 18 17 13 7 9 12 12 6 6 8 5 8 5 10 12 23 16 33 21 47 14 10 10 8 5 4 2 6 10 5 5 4 5 5 3 4 4 5 7 9 5 7 10 4 6 6 3 5
11 18 12 10 9 10 15 6 18 9 7 7 1 4 12 14 30 29 26 13 20 41 7 12 8 5 7 5 7 7 4 2 1 2 3 3 4 5 6 6 8 9 10 11 11 8 11 12 6
7 13 11 10 16 11 10 13 16 15 9 13 12 12 10 12 19 33 34 27 19 13 9 2 8 9 10 10 7 6 5 2 4 3 3 4 3 5 6 7 8 9 9 9 11 11 10 9 12
6 12 11 13 10 12 4 13 19 9 6 14 5 16 14 21 24 19 17 10 1 6 9 6 1 1 3 6 1 4 1 2 3 4 4 4 4 6 6 9 9 11 9 9 9 7 7 8 8
11 11 13 16 12 10 5 13 11 6 6 12 21 15 16 20 21 20 18 17 19 18 18 13 9 7 6 7 11 10 3 1 1 3 4 3 5 7 8 10 11 10 10 11 10 9 9 9 10
8 13 8 12 7 11 12 9 8 6 6 4 10 15 15 14 18 22 22 22 21 22 21 19 11 8 12 12 20 6 7 4 3 3 5 4 6 7 7 8 10 11 11 9 9 8 10 11 12
6 9 3 5 11 7 5 9 7 8 8 15 13 16 14 14 16 19 21 24 23 24 23 25 19 18 18 14 9 12 13 9 7 7 8 8 7 8 8 9 9 9 10 11 10 11 11 13 13
12 10 5 9 9 3 8 6 12 13 10 8 8 10 12 13 13 18 23 24 22 29 25 25 30 26 26 21 19 17 18 10 9 9 9 10 11 11 11 11 11 9 10 11 10 12 13 14 14
10 10 11 7 7 8 11 8 1 8 10 10 7 9 11 12 13 18 21 23 25 28 26 27 29 26 26 26 21 14 14 10 12 12 11 11 13 12 11 11 11 11 12 14 11 13 16 16 17
11 13 11 11 7 10 11 12 9 7 9 10 9 10 10 10 12 13 17 22 22 23 22 23 25 27 27 22 20 18 12 12 14 15 13 17 15 14 14 13 14 14 14 17 15 13 15 19 21
13 5 6 10 8 13 18 10 13 13 10 9 9 10 9 12 12 14 15 18 19 18 18 22 22 23 19 20 16 16 15 15 16 16 16 18 16 15 15 15 16 17 17 21 19 18 16 20 23
5 5 6 8 11 14 18 12 15 15 13 11 9 10 9 8 10 10 14 15 17 18 17 19 19 19 19 20 19 18 17 16 18 17 19 22 18 15 17 16 14 14 16 19 21 24 24 24 24
8 9 13 13 13 14 21 14 13 11 14 12 9 8 7 8 8 11 10 11 15 14 16 16 17 17 18 19 18 18 19 20 20 20 21 18 19 21 19 19 18 19 21 19 21 21 23 22 22
9 12 11 13 13 13 5 6 14 9 11 12 8 7 5 5 5 7 10 12 12 15 15 15 16 16 16 17 16 17 17 18 17 20 20 22 22 22 23 24 23 23 23 23 23 23 24 25 23
11 8 9 15 13 10 12 7 8 11 13 11 6 4 2 3 5 7 8 10 13 14 14 15 16 17 19 18 17 16 17 19 19 20 23 22 23 22 25 25 24 24 25 25 25 24 26 21 20
13 8 6 9 14 13 14 8 10 12 14 12 9 6 4 1 2 6 8 10 12 13 15 18 19 18 19 21 21 21 21 21 21 21 20 21 23 24 25 25 26 25 24 26 26 26 25 22 21
10 10 8 8 10 12 11 2 9 12 11 11 9 6 10 7 1 5 8 11 12 14 16 18 19 20 20 20 20 21 21 20 19 19 19 19 19 20 20 19 19 21 22 25 25 24 22 22 16
4 9 8 5 8 10 10 3 6 6 10 10 10 5 2 3 6 7 10 11 14 16 17 17 19 20 21 21 22 21 21 19 18 17 17 17 18 20 19 18 20 19 23 21 22 22 23 19 15
9 11 10 7 10 11 9 6 5 6 9 7 8 4 4 4 6 9 10 12 14 16 17 18 18 19 20 20 20 19 18 18 17 17 17 17 16 18 14 15 18 23 19 20 16 16 15 11 9
Wind_Direction
301 265 277 260 250 232 313 85 88 4 27 54 40 290 59 36 15 43 100 105 124 130 145 148 154 156 157 156 165 174 172 167 162 161 159 161 165 165 162 160 152 131 119 120 123 127 134 133 129
279 283 248 270 260 276 52 283 66 54 57 83 136 175 228 77 64 101 116 124 132 137 143 150 155 155 156 159 163 175 177 174 169 167 164 165 169 173 174 172 162 145 125 117 115 117 121 127 146
284 272 273 244 264 284 87 23 24 90 64 92 123 328 17 72 35 82 111 135 133 138 144 159 155 153 154 156 161 163 173 173 172 169 170 168 172 176 178 176 169 157 139 134 132 137 143 153 177
276 236 238 250 267 49 343 3 1 126 138 44 18 88 93 27 108 117 134 135 136 142 146 158 156 153 155 154 159 161 165 171 173 173 174 173 174 176 178 180 182 185 192 218 228 243 235 227 246
248 261 267 252 284 3 339 352 318 159 90 80 313 116 96 81 106 126 137 142 145 147 147 152 158 155 154 155 153 157 161 167 174 171 169 170 171 179 184 190 196 206 219 238 252 250 258 264 265
268 253 278 263 211 80 281 342 310 320 121 135 111 120 86 115 133 143 149 151 149 147 148 155 159 157 157 157 154 157 160 163 169 170 169 169 173 179 188 200 211 221 228 238 249 255 259 262 264
257 281 278 286 323 49 19 323 334 336 240 116 117 117 113 133 142 149 154 146 145 146 145 153 156 159 159 158 156 158 166 164 169 176 176 177 179 188 198 205 217 224 237 245 253 261 265 268 266
253 272 277 272 282 216 93 296 28 270 70 191 50 304 155 131 148 148 144 145 142 145 144 150 154 160 158 157 163 161 170 169 173 183 191 193 197 212 224 232 245 245 247 249 252 260 268 268 261
251 262 261 265 247 257 129 281 90 302 268 33 52 40 54 102 146 144 142 147 141 142 141 142 148 157 166 147 162 166 173 179 180 187 208 211 219 221 237 234 247 255 263 260 257 260 263 263 255
236 242 251 276 356 319 61 287 2 257 172 34 46 67 53 134 156 136 36 96 153 143 141 135 132 131 120 116 143 165 182 182 188 192 191 202 230 262 260 294 257 273 265 262 257 260 266 261 253
228 249 266 269 306 295 311 226 230 293 68 97 110 143 52 24 47 48 37 11 331 124 117 111 135 126 122 132 142 187 168 173 190 205 212 222 249 234 254 250 237 226 249 252 250 245 246 259 268
234 251 262 293 151 257 261 270 229 235 98 86 62 8 95 120 80 94 68 32 327 336 139 118 119 93 0 146 115 269 179 161 195 183 208 242 265 239 280 294 309 265 247 263 313 264 279 313 355
246 263 238 267 260 217 268 279 283 256 258 198 30 213 71 67 113 113 124 171 274 288 86 111 146 161 185 188 192 265 141 143 285 226 217 233 281 296 291 290 289 304 292 296 286 300 285 285 303
262 249 261 250 257 232 244 260 265 264 300 305 308 100 48 61 61 130 135 159 208 295 27 86 163 172 192 182 211 213 141 218 230 274 265 248 258 283 288 293 284 291 302 293 288 282 270 256 239
271 264 246 253 248 253 242 263 252 327 342 297 86 87 50 56 57 60 57 73 161 90 87 123 137 217 213 174 208 288 200 213 241 236 250 269 271 292 293 291 299 293 287 289 285 277 262 243 216
242 234 252 202 212 219 211 272 51 356 278 269 81 87 67 52 57 73 60 41 36 49 94 101 73 23 301 272 218 218 187 250 289 282 278 260 282 285 293 293 296 297 290 281 273 256 253 236 223
208 255 212 124 185 244 199 246 31 341 268 183 77 71 64 45 48 53 62 54 47 49 57 48 69 39 334 18 311 178 100 62 44 336 303 327 300 292 287 290 293 296 285 280 273 254 248 250 239
211 236 176 263 154 222 226 69 15 341 4 74 73 65 59 50 46 50 56 54 50 53 55 58 53 66 45 6 345 5 37 34 37 14 3 351 322 310 309 304 293 293 288 276 264 261 251 249 247
315 307 285 197 121 267 46 86 38 8 63 67 64 66 64 63 55 56 56 55 48 50 39 52 47 52 46 19 36 13 359 6 22 13 14 355 348 335 324 313 306 295 282 278 281 264 260 259 255
259 254 253 256 138 227 146 104 70 80 68 64 77 84 85 73 55 52 53 51 43 46 38 32 42 38 51 33 7 31 337 2 30 18 10 13 354 340 328 323 307 294 285 283 267 265 268 261 258
237 257 256 268 162 220 153 173 168 130 122 114 98 80 68 60 67 65 57 52 44 47 37 36 34 33 32 34 24 14 358 6 6 355 342 345 339 335 330 320 311 301 294 279 271 256 262 272 280
271 144 296 275 225 233 188 238 173 165 146 136 116 93 61 53 53 43 56 58 55 46 40 35 33 31 25 23 21 13 2 353 343 334 329 331 323 320 318 312 310 306 292 290 289 277 267 271 275
3 318 277 276 255 253 204 229 137 161 166 147 137 117 115 95 65 62 48 36 42 37 33 34 26 22 16 15 13 5 352 339 328 324 321 318 313 320 317 311 306 313 318 304 297 296 300 288 285
332 271 249 255 254 252 252 254 154 181 172 160 132 100 72 51 47 44 34 36 34 30 27 28 20 14 9 7 4 356 345 338 328 325 321 318 318 314 311 315 328 320 320 316 318 310 298 294 288
238 259 258 250 231 253 35 283 79 110 113 152 160 129 78 31 23 28 26 19 25 23 21 15 13 6 0 357 350 344 334 328 323 325 321 325 316 312 309 317 315 309 305 305 312 313 308 298 291
315 322 295 301 296 312 160 248 98 108 111 119 119 111 84 359 26 17 13 20 16 14 13 9 3 355 355 352 347 342 340 336 328 331 334 323 314 316 320 319 317 309 304 302 303 302 305 302 296
288 243 338 299 283 267 266 109 128 133 131 144 155 165 168 163 314 18 11 21 11 9 9 5 359 352 351 351 347 342 340 336 335 331 324 323 320 312 311 311 311 308 305 300 294 288 297 296 288
259 328 285 238 261 272 283 293 75 162 156 158 167 189 197 201 123 27 9 16 8 8 2 360 356 353 350 347 344 341 338 335 330 328 328 324 318 316 313 310 310 309 305 301 301 293 288 289 287
266 245 225 255 302 304 305 34 29 124 161 169 171 129 74 350 4 0 5 13 9 3 359 358 354 350 351 348 344 342 339 337 333 331 328 327 323 317 315 316 316 311 331 303 301 298 291 287 285
286 293 312 288 281 278 288 305 10 83 128 159 110 130 62 1 358 345 2 15 7 0 357 355 353 353 352 348 344 343 341 341 339 336 333 332 327 332 325 325 331 344 347 345 325 316 320 344 2